• In Uzbekistan
  • List of Countries
  • For 7 days
  • Water Temperature
  • Satellite Maps
  • Weather Map
  • Weather Widgets
  • user-avatar
    Login

    Hourly Weather Jinan

    Today, 20 September, Thursday

    Time Temperature Precipitation Wind Pressure Humidity
    00:00 +20°C° 0.2 mm 2 mps 753 mmHg 96%
    01:00 +20°C° 0.2 mm 2 mps 753 mmHg 97%
    02:00 +19°C° 0.2 mm 2 mps 752 mmHg 97%
    03:00 +19°C° 0 mm 2 mps 752 mmHg 97%
    04:00 +19°C° 0 mm 2 mps 752 mmHg 97%
    05:00 +19°C° 0 mm 2 mps 752 mmHg 97%
    06:00 +20°C° 0 mm 2 mps 753 mmHg 95%
    07:00 +20°C° 0 mm 2 mps 753 mmHg 94%
    08:00 +21°C° 0 mm 2 mps 753 mmHg 92%
    09:00 +23°C° 0 mm 2 mps 753 mmHg 87%
    10:00 +24°C° 0 mm 3 mps 753 mmHg 83%
    11:00 +25°C° 0 mm 3 mps 753 mmHg 78%
    12:00 +25°C° 0 mm 3 mps 753 mmHg 76%
    13:00 +26°C° 0 mm 3 mps 753 mmHg 74%
    14:00 +26°C° 0 mm 3 mps 753 mmHg 72%
    15:00 +26°C° 0 mm 2 mps 753 mmHg 74%
    16:00 +26°C° 0 mm 2 mps 753 mmHg 76%
    17:00 +26°C° 0 mm 1 mps 753 mmHg 78%
    18:00 +25°C° 0 mm 1 mps 753 mmHg 82%
    19:00 +24°C° 0 mm 1 mps 753 mmHg 86%
    20:00 +20°C° 0 mm 0 mps 753 mmHg 89%
    21:00 +22°C° 0 mm 1 mps 753 mmHg 90%
    22:00 +22°C° 0 mm 1 mps 753 mmHg 91%
    23:00 +21°C° 0 mm 1 mps 753 mmHg 92%

    Tomorrow, 21 September, Friday

    Time Temperature Precipitation Wind Pressure Humidity
    00:00 +21°C° 0 mm 1 mps 753 mmHg 92%
    01:00 +21°C° 0 mm 1 mps 753 mmHg 93%
    02:00 +20°C° 0 mm 1 mps 753 mmHg 93%
    03:00 +20°C° 0 mm 1 mps 753 mmHg 93%
    04:00 +20°C° 0 mm 1 mps 753 mmHg 92%
    05:00 +19°C° 0 mm 1 mps 753 mmHg 92%
    06:00 +20°C° 0 mm 1 mps 753 mmHg 87%
    07:00 +22°C° 0 mm 1 mps 754 mmHg 82%
    08:00 +23°C° 0 mm 1 mps 754 mmHg 77%
    09:00 +25°C° 0 mm 2 mps 754 mmHg 69%
    10:00 +26°C° 0 mm 2 mps 754 mmHg 61%
    11:00 +28°C° 0 mm 3 mps 755 mmHg 53%
    12:00 +28°C° 0 mm 4 mps 755 mmHg 47%
    13:00 +29°C° 0 mm 4 mps 754 mmHg 41%
    14:00 +29°C° 0 mm 5 mps 754 mmHg 35%
    15:00 +28°C° 0 mm 4 mps 754 mmHg 37%
    16:00 +27°C° 0 mm 3 mps 754 mmHg 38%
    17:00 +27°C° 0 mm 2 mps 754 mmHg 40%
    18:00 +25°C° 0 mm 2 mps 754 mmHg 40%
    19:00 +23°C° 0 mm 2 mps 755 mmHg 39%
    20:00 +20°C° 0 mm 2 mps 755 mmHg 39%
    21:00 +20°C° 0 mm 2 mps 755 mmHg 38%
    22:00 +19°C° 0 mm 2 mps 755 mmHg 38%
    23:00 +19°C° 0 mm 2 mps 756 mmHg 37%

    Day after tomorrow, 22 September, Saturday

    Time Temperature Precipitation Wind Pressure Humidity
    00:00 +18°C° 0 mm 2 mps 756 mmHg 37%
    01:00 +17°C° 0 mm 2 mps 756 mmHg 37%
    02:00 +17°C° 0 mm 2 mps 756 mmHg 38%
    03:00 +16°C° 0 mm 2 mps 756 mmHg 37%
    04:00 +15°C° 0 mm 2 mps 756 mmHg 37%
    05:00 +15°C° 0 mm 2 mps 756 mmHg 37%
    06:00 +16°C° 0 mm 2 mps 757 mmHg 38%
    07:00 +17°C° 0 mm 2 mps 757 mmHg 40%
    08:00 +18°C° 0 mm 2 mps 757 mmHg 41%
    09:00 +19°C° 0 mm 2 mps 757 mmHg 38%
    10:00 +21°C° 0 mm 2 mps 758 mmHg 35%
    11:00 +24°C° 0 mm 3 mps 758 mmHg 32%
    12:00 +25°C° 0 mm 3 mps 757 mmHg 30%
    13:00 +25°C° 0 mm 3 mps 757 mmHg 29%
    14:00 +26°C° 0 mm 4 mps 756 mmHg 27%
    15:00 +26°C° 0 mm 3 mps 756 mmHg 31%
    16:00 +25°C° 0 mm 3 mps 756 mmHg 34%
    17:00 +24°C° 0 mm 2 mps 756 mmHg 37%
    18:00 +23°C° 0 mm 2 mps 756 mmHg 37%
    19:00 +21°C° 0 mm 1 mps 757 mmHg 38%
    20:00 +19°C° 0 mm 1 mps 757 mmHg 38%
    21:00 +19°C° 0 mm 1 mps 757 mmHg 38%
    22:00 +18°C° 0 mm 1 mps 757 mmHg 38%
    23:00 +17°C° 0 mm 2 mps 757 mmHg 38%

    23 September, Sunday

    Time Temperature Precipitation Wind Pressure Humidity
    00:00 +16°C° 0 mm 2 mps 757 mmHg 39%
    01:00 +16°C° 0 mm 2 mps 757 mmHg 40%
    02:00 +16°C° 0 mm 2 mps 758 mmHg 40%
    03:00 +15°C° 0 mm 2 mps 758 mmHg 41%
    04:00 +14°C° 0 mm 1 mps 758 mmHg 42%
    05:00 +14°C° 0 mm 1 mps 758 mmHg 42%
    06:00 +15°C° 0 mm 1 mps 759 mmHg 42%
    07:00 +16°C° 0 mm 1 mps 759 mmHg 42%
    08:00 +18°C° 0 mm 1 mps 759 mmHg 41%
    09:00 +19°C° 0 mm 2 mps 759 mmHg 37%
    10:00 +21°C° 0 mm 2 mps 759 mmHg 33%
    11:00 +24°C° 0 mm 3 mps 759 mmHg 29%
    12:00 +24°C° 0 mm 3 mps 759 mmHg 28%
    13:00 +25°C° 0 mm 2 mps 758 mmHg 28%
    14:00 +25°C° 0 mm 2 mps 758 mmHg 27%
    15:00 +25°C° 0 mm 2 mps 758 mmHg 31%
    16:00 +25°C° 0 mm 1 mps 758 mmHg 34%
    17:00 +24°C° 0 mm 1 mps 757 mmHg 38%
    18:00 +23°C° 0 mm 1 mps 758 mmHg 38%
    19:00 +21°C° 0 mm 1 mps 758 mmHg 38%
    20:00 +19°C° 0 mm 1 mps 758 mmHg 38%
    21:00 +19°C° 0 mm 1 mps 759 mmHg 39%
    22:00 +18°C° 0 mm 1 mps 759 mmHg 40%
    23:00 +17°C° 0 mm 2 mps 759 mmHg 41%

    24 September, Monday

    Time Temperature Precipitation Wind Pressure Humidity
    00:00 +16°C° 0 mm 2 mps 759 mmHg 42%
    01:00 +16°C° 0 mm 2 mps 759 mmHg 43%
    02:00 +16°C° 0 mm 2 mps 759 mmHg 44%
    03:00 +15°C° 0 mm 1 mps 759 mmHg 45%
    04:00 +15°C° 0 mm 1 mps 759 mmHg 47%
    05:00 +14°C° 0 mm 1 mps 759 mmHg 48%
    06:00 +15°C° 0 mm 0 mps 759 mmHg 47%
    07:00 +16°C° 0 mm 0 mps 760 mmHg 46%
    08:00 +17°C° 0 mm 0 mps 760 mmHg 45%
    09:00 +21°C° 0 mm 1 mps 760 mmHg 41%
    10:00 +23°C° 0 mm 1 mps 760 mmHg 38%
    11:00 +25°C° 0 mm 2 mps 761 mmHg 34%
    12:00 +25°C° 0 mm 2 mps 760 mmHg 33%
    13:00 +26°C° 0 mm 2 mps 760 mmHg 31%
    14:00 +27°C° 0 mm 2 mps 759 mmHg 30%
    15:00 +26°C° 0 mm 2 mps 759 mmHg 33%
    16:00 +26°C° 0 mm 2 mps 759 mmHg 37%
    17:00 +25°C° 0 mm 2 mps 759 mmHg 40%
    18:00 +23°C° 0 mm 2 mps 759 mmHg 43%
    19:00 +20°C° 0 mm 2 mps 760 mmHg 46%
    20:00 +19°C° 0 mm 3 mps 760 mmHg 49%
    21:00 +18°C° 0 mm 3 mps 760 mmHg 51%
    22:00 +17°C° 0 mm 3 mps 760 mmHg 52%
    23:00 +17°C° 0 mm 3 mps 760 mmHg 54%

    25 September, Tuesday

    Time Temperature Precipitation Wind Pressure Humidity
    00:00 +16°C° 0 mm 2 mps 760 mmHg 55%
    01:00 +16°C° 0 mm 2 mps 760 mmHg 56%
    02:00 +16°C° 0 mm 2 mps 760 mmHg 58%
    03:00 +16°C° 0 mm 2 mps 760 mmHg 58%
    04:00 +15°C° 0 mm 2 mps 760 mmHg 58%
    05:00 +15°C° 0 mm 2 mps 760 mmHg 59%
    06:00 +16°C° 0 mm 2 mps 761 mmHg 56%
    07:00 +18°C° 0 mm 2 mps 761 mmHg 54%
    08:00 +19°C° 0 mm 2 mps 761 mmHg 52%
    09:00 +21°C° 0 mm 2 mps 761 mmHg 46%
    10:00 +23°C° 0 mm 2 mps 761 mmHg 39%
    11:00 +25°C° 0 mm 3 mps 761 mmHg 33%
    12:00 +26°C° 0 mm 3 mps 761 mmHg 32%
    13:00 +26°C° 0 mm 3 mps 760 mmHg 31%
    14:00 +27°C° 0 mm 3 mps 759 mmHg 30%
    15:00 +26°C° 0 mm 2 mps 759 mmHg 34%
    16:00 +25°C° 0 mm 2 mps 759 mmHg 37%
    17:00 +25°C° 0 mm 2 mps 759 mmHg 41%
    18:00 +23°C° 0 mm 2 mps 759 mmHg 44%
    19:00 +20°C° 0 mm 2 mps 759 mmHg 46%
    20:00 +19°C° 0 mm 2 mps 759 mmHg 49%
    21:00 +18°C° 0 mm 2 mps 760 mmHg 52%
    22:00 +18°C° 0 mm 2 mps 760 mmHg 55%
    23:00 +17°C° 0 mm 2 mps 760 mmHg 58%
    Show more